Weather Roundup
Issued by NWS Chicago, IL

Home | Current Version | Previous Version | Text Only | Print | Product List | Glossary Off
Versions: 1 2 3 4 5 6 7 8 9 10 11 12 13 14 15 16 17 18 19 20 21 22 23 24 25 26 27 28 29 30 31 32 33 34 35 36 37 38 39 40 41 42 43 44 45 46 47 48 49 50

000
NZUS59 KLOT 310500
HRRLOT

CHICAGO AREA WEATHER ROUNDUP
NATIONAL WEATHER SERVICE CHICAGO/ROMEOVILLE IL
1100 PM CST FRI JAN 30 2015

NOTE: "FAIR" INDICATES FEW OR NO CLOUDS BELOW 12,000 FEET WITH NO
SIGNIFICANT WEATHER AND/OR OBSTRUCTIONS TO VISIBILITY.

* THESE STATIONS ARE NOT UNDER NWS QUALITY CONTROL. THEY ALSO MAY NOT
  REPORT WEATHER SUCH AS PRECIPITATION OR FOG.

ILZ005-006-012>014-019>023-310600-
NORTHEAST ILLINOIS

CITY           SKY/WX    TMP DP  RH WIND       PRES   REMARKS
OHARE          PTCLDY    20  12  71 S5        30.36F WCI  13
MIDWAY         PTCLDY    24  14  65 CALM      30.37F
AURORA         CLEAR     18  12  77 CALM      30.37F
WAUKEGAN       CLEAR     17  12  80 SW5       30.34F WCI  10
DUPAGE AIRPORT CLEAR     16  12  84 S5        30.35F WCI   9
WHEELING       CLEAR     20  12  71 S3        30.37F
NORTHERLY IS     N/A     25  15  66 S2          N/A
$$

WIZ051-052-058>065-066-070>072-310600-
SOUTHEAST WISCONSIN

CITY           SKY/WX    TMP DP  RH WIND       PRES   REMARKS
MILWAUKEE      PTCLDY    20  10  65 SW8       30.33F WCI  10
KENOSHA*       PTCLDY    19  12  74 SW5       30.34F WCI  12
RACINE*        PTCLDY    20  12  71 SW7       30.35F WCI  11
$$

INZ001>003-010>013-019-020-310600-
NORTHWEST INDIANA

CITY           SKY/WX    TMP DP  RH WIND       PRES   REMARKS
GARY*          NOT AVBL
MICHIGAN CITY* NOT AVBL
RENSSELAER*    NOT AVBL
$$

LMZ740>746-310600-
SOUTHERN LAKE MICHIGAN

STATION/POSITION TIME  SKY/WX   TEMP WIND        PRES    VSBY
                                AIR  DIR/SP/G
                 (UTC)          (F)  (DEG/KT/KT) (MB)    (MI)
HARRISON CRIB    0400            26  240/  8/ 11   N/A
BURNHAM HARBOR   0500            25  170/  3/  6   N/A
CALUMET HARBOR   0400            24  200/  3/  5   N/A
BURNS HARBOR     NOT AVBL
MICHIGAN CITY    0400            23  150/  7/ 10   N/A
$$

ABBREVIATIONS USED IN REMARKS
   TC - TEMPERATURE IN CELSIUS
  WCI - WIND CHILL INDEX
   HX - HEAT INDEX
  VSB - VISIBILITY
$$



USA.gov is the U.S. government's official web portal to all federal, state and local government web resources and services.